Wetterdaten: Sonntag, 04.12.2005
Datum Zeit Temp. A Sch. Temp. A Son. Feuchte A. Luftdruck Regen Wind Richtung Richtung Sonnenschein Helligkeit Taupunkt Windchill
04.12.2005 00:00 4,4 C 4,3 C 90 % 1000 hPa 0,0 l/m 2,5 m/s (1 Bft) S-SO67.5 155 0,00 min 0 lux 2,9 C 2,2 C
04.12.2005 00:05 4,4 C 4,4 C 90 % 1000 hPa 0,0 l/m 4,8 m/s (1 Bft) S67.5 170 0,00 min 0 lux 2,9 C -2,7 C
04.12.2005 00:10 4,5 C 4,5 C 91 % 1000 hPa 0,0 l/m 2,6 m/s (1 Bft) S-SO45 155 0,00 min 0 lux 3,2 C 1,9 C
04.12.2005 00:15 4,3 C 4,5 C 91 % 999 hPa 0,0 l/m 0,2 m/s (0 Bft) S-SO22.5 160 0,00 min 0 lux 3,0 C 4,3 C
04.12.2005 00:20 4,5 C 4,5 C 91 % 999 hPa 0,0 l/m 4,2 m/s (1 Bft) S-SO45 165 0,00 min 0 lux 3,2 C -1,6 C
04.12.2005 00:25 4,5 C 4,6 C 91 % 999 hPa 0,0 l/m 1,3 m/s (1 Bft) S-SO45 160 0,00 min 0 lux 3,2 C 4,5 C
04.12.2005 00:30 4,6 C 4,6 C 91 % 999 hPa 0,0 l/m 2,8 m/s (1 Bft) SO22.5 145 0,00 min 0 lux 3,3 C 1,6 C
04.12.2005 00:35 4,5 C 4,7 C 91 % 999 hPa 0,0 l/m 2,3 m/s (1 Bft) S67.5 175 0,00 min 0 lux 3,2 C 2,9 C
04.12.2005 00:40 4,5 C 4,7 C 91 % 999 hPa 0,0 l/m 2,3 m/s (1 Bft) S67.5 175 0,00 min 0 lux 3,2 C 2,9 C
04.12.2005 00:45 4,4 C 4,7 C 91 % 999 hPa 0,0 l/m 0,3 m/s (0 Bft) S-SO45 160 0,00 min 0 lux 3,1 C 4,4 C
04.12.2005 00:50 4,6 C 4,7 C 91 % 999 hPa 0,0 l/m 3,6 m/s (1 Bft) S-SW67.5 195 0,00 min 0 lux 3,3 C -0,3 C
04.12.2005 00:55 4,6 C 4,7 C 91 % 999 hPa 0,0 l/m 3,2 m/s (1 Bft) S67.5 180 0,00 min 0 lux 3,3 C 0,6 C
04.12.2005 01:00 4,7 C 4,8 C 92 % 999 hPa 0,0 l/m 5,4 m/s (1 Bft) S45 180 0,00 min 0 lux 3,5 C -3,4 C
04.12.2005 01:05 4,7 C 4,8 C 92 % 999 hPa 0,0 l/m 3,4 m/s (1 Bft) S67.5 185 0,00 min 0 lux 3,5 C 0,3 C
04.12.2005 01:10 4,8 C 4,9 C 92 % 999 hPa 0,0 l/m 4,3 m/s (1 Bft) S-SW67.5 205 0,00 min 0 lux 3,6 C -1,4 C
04.12.2005 01:15 4,7 C 4,9 C 91 % 999 hPa 0,0 l/m 2,6 m/s (1 Bft) S45 170 0,00 min 0 lux 3,4 C 2,3 C
04.12.2005 01:20 4,7 C 5,0 C 91 % 999 hPa 0,0 l/m 2,1 m/s (1 Bft) S45 170 0,00 min 0 lux 3,4 C 3,7 C
04.12.2005 01:25 4,7 C 5,0 C 92 % 999 hPa 0,4 l/m 2,3 m/s (1 Bft) S-SW67.5 195 0,00 min 0 lux 3,5 C 3,0 C
04.12.2005 01:30 4,7 C 5,0 C 92 % 999 hPa 0,0 l/m 3,2 m/s (1 Bft) S-SW67.5 200 0,00 min 0 lux 3,5 C 0,8 C
04.12.2005 01:35 4,8 C 5,0 C 92 % 999 hPa 0,0 l/m 3,2 m/s (1 Bft) S45 170 0,00 min 0 lux 3,6 C 0,8 C
04.12.2005 01:40 4,8 C 5,0 C 92 % 999 hPa 0,0 l/m 3,8 m/s (1 Bft) S-SW45 200 0,00 min 0 lux 3,6 C -0,5 C
04.12.2005 01:45 4,8 C 5,0 C 92 % 999 hPa 0,0 l/m 3,2 m/s (1 Bft) S45 170 0,00 min 0 lux 3,6 C 0,8 C
04.12.2005 01:50 4,8 C 5,1 C 92 % 999 hPa 0,0 l/m 4,4 m/s (1 Bft) S-SO67.5 160 0,00 min 0 lux 3,6 C -1,6 C
04.12.2005 01:55 5,0 C 5,1 C 91 % 999 hPa 0,0 l/m 5,9 m/s (2 Bft) S67.5 180 0,00 min 0 lux 3,7 C -3,6 C
04.12.2005 02:00 5,0 C 5,2 C 91 % 999 hPa 0,0 l/m 1,6 m/s (1 Bft) S-SO45 165 0,00 min 0 lux 3,7 C 5,0 C
04.12.2005 02:05 5,0 C 5,2 C 91 % 999 hPa 0,0 l/m 4,3 m/s (1 Bft) S45 170 0,00 min 0 lux 3,7 C -1,1 C
04.12.2005 02:10 5,0 C 5,2 C 91 % 999 hPa 0,0 l/m 4,8 m/s (1 Bft) S45 190 0,00 min 0 lux 3,7 C -2,0 C
04.12.2005 02:15 5,0 C 5,2 C 90 % 999 hPa 0,0 l/m 4,6 m/s (1 Bft) S67.5 180 0,00 min 0 lux 3,5 C -1,7 C
04.12.2005 02:20 5,1 C 5,2 C 90 % 999 hPa 0,0 l/m 5,6 m/s (1 Bft) S-SW67.5 200 0,00 min 0 lux 3,6 C -3,2 C
04.12.2005 02:25 5,1 C 5,2 C 90 % 999 hPa 0,0 l/m 3,6 m/s (1 Bft) S-SO45 160 0,00 min 0 lux 3,6 C 0,2 C
04.12.2005 02:30 5,2 C 5,3 C 90 % 999 hPa 0,0 l/m 4,2 m/s (1 Bft) S67.5 190 0,00 min 0 lux 3,7 C -0,8 C
04.12.2005 02:35 5,1 C 5,2 C 90 % 999 hPa 0,4 l/m 4,9 m/s (1 Bft) S67.5 180 0,00 min 0 lux 3,6 C -2,1 C
04.12.2005 02:40 5,1 C 5,2 C 90 % 999 hPa 0,0 l/m 3,6 m/s (1 Bft) S-SW45 195 0,00 min 0 lux 3,6 C 0,4 C
04.12.2005 02:45 5,1 C 5,2 C 90 % 999 hPa 0,0 l/m 4,3 m/s (1 Bft) S-SW67.5 195 0,00 min 0 lux 3,6 C -1,0 C
04.12.2005 02:50 5,2 C 5,2 C 90 % 999 hPa 0,0 l/m 4,1 m/s (1 Bft) S-SW67.5 205 0,00 min 0 lux 3,7 C -0,5 C
04.12.2005 02:55 5,1 C 5,2 C 90 % 999 hPa 0,4 l/m 2,9 m/s (1 Bft) S67.5 185 0,00 min 0 lux 3,6 C 1,8 C
04.12.2005 03:00 5,0 C 5,2 C 90 % 999 hPa 0,0 l/m 2,2 m/s (1 Bft) S45 170 0,00 min 0 lux 3,5 C 3,7 C
04.12.2005 03:05 5,0 C 5,1 C 90 % 999 hPa 0,0 l/m 3,2 m/s (1 Bft) S45 170 0,00 min 0 lux 3,5 C 1,1 C
04.12.2005 03:10 5,0 C 5,1 C 91 % 999 hPa 0,0 l/m 3,2 m/s (1 Bft) SO22.5 140 0,00 min 0 lux 3,7 C 1,1 C
04.12.2005 03:15 5,0 C 5,1 C 91 % 999 hPa 0,0 l/m 4,3 m/s (1 Bft) S-SO45 165 0,00 min 0 lux 3,7 C -1,2 C
04.12.2005 03:20 5,1 C 5,2 C 91 % 999 hPa 0,0 l/m 2,4 m/s (1 Bft) S45 185 0,00 min 0 lux 3,8 C 3,1 C
04.12.2005 03:25 5,1 C 5,2 C 91 % 999 hPa 0,0 l/m 4,9 m/s (1 Bft) S45 170 0,00 min 0 lux 3,8 C -2,1 C
04.12.2005 03:30 5,0 C 5,2 C 91 % 999 hPa 0,0 l/m 3,1 m/s (1 Bft) S-SW67.5 195 0,00 min 0 lux 3,7 C 1,3 C
04.12.2005 03:35 5,1 C 5,1 C 92 % 999 hPa 0,0 l/m 4,0 m/s (1 Bft) SO45 145 0,00 min 0 lux 3,9 C -0,5 C
04.12.2005 03:40 5,1 C 5,2 C 92 % 999 hPa 0,0 l/m 3,9 m/s (1 Bft) S-SO45 160 0,00 min 0 lux 3,9 C -0,3 C
04.12.2005 03:45 5,1 C 5,2 C 92 % 999 hPa 0,0 l/m 2,2 m/s (1 Bft) S45 185 0,00 min 0 lux 3,9 C 3,7 C
04.12.2005 03:50 5,2 C 5,2 C 92 % 999 hPa 0,0 l/m 0,9 m/s (0 Bft) S67.5 190 0,00 min 0 lux 4,0 C 5,2 C
04.12.2005 03:55 5,2 C 5,2 C 92 % 999 hPa 0,0 l/m 2,6 m/s (1 Bft) S-SW45 195 0,00 min 0 lux 4,0 C 2,7 C
04.12.2005 04:00 5,2 C 5,2 C 92 % 999 hPa 0,0 l/m 3,4 m/s (1 Bft) S67.5 175 0,00 min 0 lux 4,0 C 0,8 C
04.12.2005 04:05 5,4 C 5,3 C 92 % 999 hPa 0,0 l/m 3,5 m/s (1 Bft) S-SO45 165 0,00 min 0 lux 4,2 C 0,9 C
04.12.2005 04:10 5,2 C 5,3 C 92 % 998 hPa 0,0 l/m 3,1 m/s (1 Bft) S67.5 170 0,00 min 0 lux 4,0 C 1,5 C
04.12.2005 04:15 5,4 C 5,4 C 92 % 998 hPa 0,0 l/m 3,3 m/s (1 Bft) S45 190 0,00 min 0 lux 4,2 C 1,2 C
04.12.2005 04:20 5,4 C 5,4 C 92 % 999 hPa 0,0 l/m 3,3 m/s (1 Bft) S45 190 0,00 min 0 lux 4,2 C 1,3 C
04.12.2005 04:25 5,3 C 5,3 C 92 % 998 hPa 0,0 l/m 3,6 m/s (1 Bft) SW45 220 0,00 min 0 lux 4,1 C 0,6 C
04.12.2005 04:30 5,4 C 5,3 C 91 % 998 hPa 0,4 l/m 4,3 m/s (1 Bft) S-SW67.5 195 0,00 min 0 lux 4,1 C -0,6 C
04.12.2005 04:35 5,3 C 5,3 C 91 % 998 hPa 0,0 l/m 4,3 m/s (1 Bft) SW67.5 215 0,00 min 0 lux 4,0 C -0,8 C
04.12.2005 04:40 5,3 C 5,3 C 91 % 998 hPa 0,0 l/m 2,6 m/s (1 Bft) S45 185 0,00 min 0 lux 4,0 C 2,8 C
04.12.2005 04:45 5,3 C 5,3 C 91 % 998 hPa 0,0 l/m 2,0 m/s (1 Bft) SW67.5 230 0,00 min 0 lux 4,0 C 4,5 C
04.12.2005 04:50 5,4 C 5,3 C 91 % 998 hPa 0,4 l/m 1,8 m/s (1 Bft) SW45 230 0,00 min 0 lux 4,1 C 5,3 C
04.12.2005 04:55 5,4 C 5,3 C 91 % 998 hPa 0,0 l/m 2,1 m/s (1 Bft) SW45 235 0,00 min 0 lux 4,1 C 4,3 C
04.12.2005 05:00 5,3 C 5,3 C 91 % 998 hPa 0,0 l/m 2,2 m/s (1 Bft) S-SW67.5 210 0,00 min 0 lux 4,0 C 4,0 C
04.12.2005 05:05 5,3 C 5,3 C 91 % 998 hPa 0,0 l/m 1,6 m/s (1 Bft) SW67.5 215 0,00 min 0 lux 4,0 C 5,3 C
04.12.2005 05:10 5,3 C 5,3 C 91 % 998 hPa 0,0 l/m 0,0 m/s (0 Bft) SW67.5 215 0,00 min 0 lux 4,0 C 5,3 C
04.12.2005 05:15 5,3 C 5,3 C 91 % 998 hPa 0,0 l/m 1,4 m/s (1 Bft) S-SW67.5 200 0,00 min 0 lux 4,0 C 5,3 C
04.12.2005 05:20 5,3 C 5,3 C 91 % 998 hPa 0,0 l/m 0,9 m/s (0 Bft) S-SO45 155 0,00 min 0 lux 4,0 C 5,3 C
04.12.2005 05:25 5,3 C 5,3 C 91 % 998 hPa 0,0 l/m 0,1 m/s (0 Bft) S67.5 170 0,00 min 0 lux 4,0 C 5,3 C
04.12.2005 05:30 5,3 C 5,3 C 91 % 998 hPa 0,0 l/m 1,3 m/s (1 Bft) S-SO45 165 0,00 min 0 lux 4,0 C 5,3 C
04.12.2005 05:35 5,3 C 5,3 C 91 % 998 hPa 0,0 l/m 0,4 m/s (0 Bft) O-SO45 120 0,00 min 0 lux 4,0 C 5,3 C
04.12.2005 05:40 5,4 C 5,3 C 91 % 998 hPa 0,0 l/m 3,0 m/s (1 Bft) S-SO67.5 160 0,00 min 0 lux 4,1 C 2,0 C
04.12.2005 05:45 5,3 C 5,3 C 91 % 998 hPa 0,0 l/m 0,4 m/s (0 Bft) SW67.5 230 0,00 min 0 lux 4,0 C 5,3 C
04.12.2005 05:50 5,3 C 5,3 C 91 % 998 hPa 0,4 l/m 1,3 m/s (1 Bft) SO 145 0,00 min 0 lux 4,0 C 5,3 C
04.12.2005 05:55 5,3 C 5,3 C 90 % 998 hPa 0,0 l/m 1,5 m/s (1 Bft) S-SO67.5 155 0,00 min 0 lux 3,8 C 5,3 C
04.12.2005 06:00 5,3 C 5,3 C 90 % 998 hPa 0,0 l/m 0,1 m/s (0 Bft) S-SO22.5 150 0,00 min 0 lux 3,8 C 5,3 C
04.12.2005 06:05 5,3 C 5,3 C 90 % 998 hPa 0,0 l/m 1,3 m/s (1 Bft) SO67.5 130 0,00 min 0 lux 3,8 C 5,3 C
04.12.2005 06:10 5,3 C 5,3 C 90 % 998 hPa 0,0 l/m 0,3 m/s (0 Bft) S67.5 175 0,00 min 0 lux 3,8 C 5,3 C
04.12.2005 06:15 5,2 C 5,3 C 90 % 998 hPa 0,0 l/m 0,1 m/s (0 Bft) S45 170 0,00 min 0 lux 3,7 C 5,2 C
04.12.2005 06:20 5,2 C 5,3 C 90 % 998 hPa 0,0 l/m 0,9 m/s (0 Bft) S-SW22.5 195 0,00 min 0 lux 3,7 C 5,2 C
04.12.2005 06:25 5,3 C 5,3 C 90 % 998 hPa 0,4 l/m 0,1 m/s (0 Bft) SO 145 0,00 min 0 lux 3,8 C 5,3 C
04.12.2005 06:30 5,1 C 5,2 C 90 % 998 hPa 0,0 l/m 0,0 m/s (0 Bft) S22.5 180 0,00 min 0 lux 3,6 C 5,1 C
04.12.2005 06:35 5,3 C 5,2 C 91 % 998 hPa 0,0 l/m 3,2 m/s (1 Bft) S67.5 190 0,00 min 0 lux 4,0 C 1,4 C
04.12.2005 06:40 5,1 C 5,2 C 91 % 998 hPa 0,0 l/m 2,3 m/s (1 Bft) S-SO67.5 160 0,00 min 0 lux 3,8 C 3,5 C
04.12.2005 06:45 5,3 C 5,3 C 91 % 998 hPa 0,0 l/m 3,8 m/s (1 Bft) S-SW67.5 195 0,00 min 0 lux 4,0 C 0,2 C
04.12.2005 06:50 5,3 C 5,3 C 91 % 998 hPa 0,0 l/m 2,0 m/s (1 Bft) S-SW45 205 0,00 min 0 lux 4,0 C 4,7 C
04.12.2005 06:55 5,3 C 5,2 C 91 % 998 hPa 0,0 l/m 2,0 m/s (1 Bft) S-SW45 205 0,00 min 0 lux 4,0 C 4,7 C
04.12.2005 07:00 5,3 C 5,2 C 91 % 998 hPa 0,4 l/m 5,5 m/s (1 Bft) S-SW67.5 200 0,00 min 0 lux 4,0 C -2,7 C
04.12.2005 07:05 5,3 C 5,2 C 91 % 998 hPa 0,0 l/m 3,9 m/s (1 Bft) S67.5 190 0,00 min 0 lux 4,0 C 0,0 C
04.12.2005 07:10 5,2 C 5,2 C 91 % 998 hPa 0,0 l/m 3,3 m/s (1 Bft) SW45 220 0,00 min 0 lux 3,9 C 1,1 C
04.12.2005 07:15 5,3 C 5,2 C 91 % 998 hPa 0,0 l/m 4,1 m/s (1 Bft) S-SW45 210 0,00 min 0 lux 4,0 C -0,5 C
04.12.2005 07:20 5,3 C 5,2 C 91 % 998 hPa 0,4 l/m 6,5 m/s (2 Bft) S-SW67.5 205 0,00 min 0 lux 4,0 C -4,1 C
04.12.2005 07:25 5,3 C 5,3 C 91 % 998 hPa 0,0 l/m 3,4 m/s (1 Bft) S-SW45 200 0,00 min 0 lux 4,0 C 0,9 C
04.12.2005 07:30 5,3 C 5,3 C 91 % 998 hPa 0,0 l/m 4,9 m/s (1 Bft) SW67.5 230 0,00 min 0 lux 4,0 C -1,8 C
04.12.2005 07:35 5,3 C 5,3 C 91 % 998 hPa 0,0 l/m 1,3 m/s (1 Bft) S-SW67.5 195 0,00 min 0 lux 4,0 C 5,3 C
04.12.2005 07:40 5,3 C 5,3 C 91 % 998 hPa 0,0 l/m 3,3 m/s (1 Bft) S-SW67.5 205 0,00 min 0 lux 4,0 C 1,2 C
04.12.2005 07:45 5,3 C 5,3 C 91 % 998 hPa 0,0 l/m 3,5 m/s (1 Bft) S67.5 190 0,00 min 0 lux 4,0 C 0,8 C
04.12.2005 07:50 5,3 C 5,3 C 92 % 998 hPa 0,4 l/m 1,7 m/s (1 Bft) S-SW67.5 200 0,00 min 0 lux 4,1 C 5,3 C
04.12.2005 07:55 5,3 C 5,3 C 92 % 998 hPa 0,0 l/m 3,0 m/s (1 Bft) SW67.5 230 0,00 min 0 lux 4,1 C 1,9 C
04.12.2005 08:00 5,3 C 5,3 C 92 % 998 hPa 0,0 l/m 5,0 m/s (1 Bft) S-SW67.5 205 0,00 min 0 lux 4,1 C -2,0 C
04.12.2005 08:05 5,4 C 5,3 C 92 % 998 hPa 0,0 l/m 4,9 m/s (1 Bft) SW67.5 225 0,00 min 0 lux 4,2 C -1,7 C
04.12.2005 08:10 5,4 C 5,3 C 92 % 998 hPa 0,0 l/m 4,5 m/s (1 Bft) W-SW45 245 0,00 min 0 lux 4,2 C -1,1 C
04.12.2005 08:15 5,4 C 5,4 C 91 % 998 hPa 0,0 l/m 5,2 m/s (1 Bft) SW45 235 0,00 min 0 lux 4,1 C -2,2 C
04.12.2005 08:20 5,4 C 5,4 C 91 % 998 hPa 0,0 l/m 4,7 m/s (1 Bft) SW67.5 225 0,00 min 0 lux 4,1 C -1,3 C
04.12.2005 08:25 5,4 C 5,4 C 91 % 998 hPa 0,0 l/m 5,0 m/s (1 Bft) SW67.5 215 0,00 min 0 lux 4,1 C -1,9 C
04.12.2005 08:30 5,5 C 5,4 C 91 % 998 hPa 0,0 l/m 4,3 m/s (1 Bft) SW45 225 0,00 min 0 lux 4,2 C -0,6 C
04.12.2005 08:35 5,5 C 5,4 C 91 % 998 hPa 0,0 l/m 4,2 m/s (1 Bft) SW45 215 0,00 min 0 lux 4,2 C -0,4 C
04.12.2005 08:40 5,5 C 5,5 C 91 % 998 hPa 0,0 l/m 3,5 m/s (1 Bft) SW67.5 215 0,00 min 0 lux 4,2 C 1,0 C
04.12.2005 08:45 5,6 C 5,5 C 91 % 998 hPa 0,0 l/m 6,5 m/s (2 Bft) SW22.5 215 0,00 min 0 lux 4,2 C -3,6 C
04.12.2005 08:50 5,5 C 5,5 C 91 % 998 hPa 0,0 l/m 6,7 m/s (2 Bft) S-SW45 210 0,00 min 0 lux 4,2 C -4,0 C
04.12.2005 08:55 5,5 C 5,5 C 90 % 998 hPa 0,0 l/m 4,5 m/s (1 Bft) S-SW45 210 0,00 min 0 lux 4,0 C -0,9 C
04.12.2005 09:00 5,6 C 5,5 C 90 % 998 hPa 0,0 l/m 5,7 m/s (1 Bft) SW67.5 215 0,00 min 0 lux 4,1 C -2,6 C
04.12.2005 09:05 5,6 C 5,5 C 90 % 998 hPa 0,0 l/m 5,0 m/s (1 Bft) SW67.5 215 0,00 min 0 lux 4,1 C -1,6 C
04.12.2005 09:10 5,6 C 5,6 C 90 % 998 hPa 0,0 l/m 4,2 m/s (1 Bft) SW67.5 225 0,00 min 0 lux 4,1 C -0,2 C
04.12.2005 09:15 5,7 C 5,6 C 89 % 998 hPa 0,0 l/m 3,4 m/s (1 Bft) S-SW67.5 210 0,00 min 0 lux 4,0 C 1,4 C
04.12.2005 09:20 5,7 C 5,7 C 89 % 999 hPa 0,0 l/m 3,8 m/s (1 Bft) SW67.5 220 0,00 min 0 lux 4,0 C 0,7 C
04.12.2005 09:25 5,8 C 5,7 C 89 % 999 hPa 0,0 l/m 4,5 m/s (1 Bft) SW45 230 0,00 min 0 lux 4,1 C -0,6 C
04.12.2005 09:30 5,8 C 5,8 C 89 % 999 hPa 0,0 l/m 4,8 m/s (1 Bft) W-SW45 240 0,00 min 0 lux 4,1 C -0,9 C
04.12.2005 09:35 5,9 C 5,8 C 89 % 999 hPa 0,0 l/m 4,3 m/s (1 Bft) SW45 235 0,00 min 0 lux 4,2 C -0,1 C
04.12.2005 09:40 5,9 C 5,9 C 89 % 999 hPa 0,0 l/m 3,0 m/s (1 Bft) S-SW67.5 210 0,00 min 0 lux 4,2 C 2,5 C
04.12.2005 09:45 6,0 C 5,9 C 88 % 999 hPa 0,0 l/m 3,8 m/s (1 Bft) S-SW67.5 205 0,00 min 0 lux 4,2 C 1,1 C
04.12.2005 09:50 6,2 C 6,0 C 88 % 999 hPa 0,0 l/m 4,0 m/s (1 Bft) S-SW45 210 0,00 min 0 lux 4,4 C 0,8 C
04.12.2005 09:55 6,4 C 6,1 C 87 % 999 hPa 0,0 l/m 4,4 m/s (1 Bft) SW22.5 235 0,00 min 0 lux 4,4 C 0,4 C
04.12.2005 10:00 6,5 C 6,2 C 86 % 999 hPa 0,0 l/m 4,4 m/s (1 Bft) SW22.5 235 0,00 min 0 lux 4,3 C 0,6 C
04.12.2005 10:05 6,5 C 6,3 C 85 % 999 hPa 0,0 l/m 3,8 m/s (1 Bft) SW45 225 0,00 min 0 lux 4,2 C 1,5 C
04.12.2005 10:10 6,5 C 6,3 C 85 % 999 hPa 0,0 l/m 1,5 m/s (1 Bft) SW22.5 220 0,00 min 0 lux 4,2 C 6,5 C
04.12.2005 10:15 6,4 C 6,3 C 85 % 999 hPa 0,4 l/m 0,1 m/s (0 Bft) S-SO45 150 0,00 min 0 lux 4,1 C 6,4 C
04.12.2005 10:20 6,3 C 6,3 C 86 % 999 hPa 0,0 l/m 2,9 m/s (1 Bft) SW45 215 0,00 min 0 lux 4,1 C 3,1 C
04.12.2005 10:25 6,2 C 6,3 C 86 % 999 hPa 0,0 l/m 3,2 m/s (1 Bft) SW45 230 0,00 min 0 lux 4,0 C 2,4 C
04.12.2005 10:30 6,3 C 6,2 C 86 % 999 hPa 0,0 l/m 3,1 m/s (1 Bft) S-SW67.5 210 0,00 min 0 lux 4,1 C 2,8 C
04.12.2005 10:35 6,3 C 6,2 C 87 % 999 hPa 0,4 l/m 1,9 m/s (1 Bft) SW67.5 215 0,00 min 0 lux 4,3 C 5,8 C
04.12.2005 10:40 6,3 C 6,2 C 87 % 999 hPa 0,0 l/m 3,1 m/s (1 Bft) SW67.5 215 0,00 min 0 lux 4,3 C 2,9 C
04.12.2005 10:45 6,2 C 6,2 C 86 % 999 hPa 0,0 l/m 6,1 m/s (2 Bft) SW22.5 220 0,00 min 0 lux 4,0 C -2,4 C
04.12.2005 10:50 6,3 C 6,2 C 86 % 999 hPa 0,0 l/m 2,7 m/s (1 Bft) S-SW67.5 205 0,00 min 0 lux 4,1 C 3,7 C
04.12.2005 10:55 6,5 C 6,3 C 87 % 999 hPa 0,0 l/m 3,5 m/s (1 Bft) S45 180 0,00 min 0 lux 4,5 C 2,2 C
04.12.2005 11:00 6,5 C 6,3 C 86 % 999 hPa 0,0 l/m 4,6 m/s (1 Bft) S67.5 175 0,00 min 0 lux 4,3 C 0,2 C
04.12.2005 11:05 6,4 C 6,4 C 86 % 999 hPa 0,0 l/m 4,7 m/s (1 Bft) S-SW67.5 200 0,00 min 0 lux 4,2 C -0,1 C
04.12.2005 11:10 6,4 C 6,4 C 85 % 999 hPa 0,0 l/m 3,6 m/s (1 Bft) S-SW45 200 0,00 min 0 lux 4,1 C 1,8 C
04.12.2005 11:15 6,4 C 6,4 C 86 % 999 hPa 0,0 l/m 2,5 m/s (1 Bft) S45 185 0,00 min 0 lux 4,2 C 4,2 C
04.12.2005 11:20 6,4 C 6,4 C 86 % 999 hPa 0,0 l/m 2,0 m/s (1 Bft) SW67.5 215 0,00 min 0 lux 4,2 C 5,7 C
04.12.2005 11:25 6,4 C 6,4 C 86 % 999 hPa 0,0 l/m 1,3 m/s (1 Bft) S45 185 0,00 min 0 lux 4,2 C 6,4 C
04.12.2005 11:30 6,4 C 6,5 C 86 % 999 hPa 0,0 l/m 3,3 m/s (1 Bft) S45 185 0,00 min 0 lux 4,2 C 2,4 C
04.12.2005 11:35 6,5 C 6,5 C 86 % 999 hPa 0,0 l/m 3,4 m/s (1 Bft) S67.5 185 0,00 min 0 lux 4,3 C 2,3 C
04.12.2005 11:40 6,6 C 6,6 C 86 % 999 hPa 0,0 l/m 1,4 m/s (1 Bft) S-SW45 200 0,00 min 0 lux 4,4 C 6,6 C
04.12.2005 11:45 6,6 C 6,5 C 86 % 999 hPa 0,0 l/m 0,6 m/s (0 Bft) S-SW45 200 0,00 min 0 lux 4,4 C 6,6 C
04.12.2005 11:50 6,6 C 6,6 C 86 % 999 hPa 0,0 l/m 2,0 m/s (1 Bft) S45 180 0,00 min 0 lux 4,4 C 6,0 C
04.12.2005 11:55 6,6 C 6,7 C 86 % 999 hPa 0,0 l/m 5,0 m/s (1 Bft) S-SW67.5 195 0,00 min 0 lux 4,4 C -0,4 C
04.12.2005 12:00 6,7 C 6,7 C 86 % 999 hPa 0,0 l/m 1,6 m/s (1 Bft) S45 175 0,00 min 0 lux 4,5 C 6,7 C
04.12.2005 12:05 6,8 C 6,7 C 86 % 999 hPa 0,0 l/m 1,7 m/s (1 Bft) S45 170 0,00 min 0 lux 4,6 C 6,8 C
04.12.2005 12:10 6,8 C 6,8 C 85 % 999 hPa 0,0 l/m 1,3 m/s (1 Bft) S-SO45 165 0,00 min 0 lux 4,5 C 6,8 C
04.12.2005 12:15 6,7 C 6,8 C 85 % 999 hPa 0,0 l/m 1,4 m/s (1 Bft) SO67.5 140 0,00 min 0 lux 4,4 C 6,7 C
04.12.2005 12:20 6,7 C 6,7 C 85 % 999 hPa 0,0 l/m 1,6 m/s (1 Bft) S-SO45 150 0,00 min 0 lux 4,4 C 6,7 C
04.12.2005 12:25 6,8 C 6,8 C 85 % 999 hPa 0,0 l/m 4,4 m/s (1 Bft) S-SW67.5 205 0,00 min 0 lux 4,5 C 0,8 C
04.12.2005 12:30 6,8 C 6,8 C 85 % 999 hPa 0,0 l/m 5,1 m/s (1 Bft) S67.5 190 0,00 min 0 lux 4,5 C -0,3 C
04.12.2005 12:35 6,8 C 6,9 C 85 % 999 hPa 0,0 l/m 2,3 m/s (1 Bft) S67.5 190 0,00 min 0 lux 4,5 C 5,4 C
04.12.2005 12:40 6,8 C 6,8 C 84 % 999 hPa 0,0 l/m 1,8 m/s (1 Bft) S67.5 180 0,00 min 0 lux 4,3 C 6,8 C
04.12.2005 12:45 6,8 C 6,8 C 85 % 999 hPa 0,0 l/m 3,0 m/s (1 Bft) S-SO45 165 0,00 min 0 lux 4,5 C 3,5 C
04.12.2005 12:50 6,8 C 6,8 C 85 % 998 hPa 0,0 l/m 2,4 m/s (1 Bft) S67.5 180 0,00 min 0 lux 4,5 C 5,1 C
04.12.2005 12:55 6,8 C 6,8 C 85 % 998 hPa 0,0 l/m 2,8 m/s (1 Bft) SW45 225 0,00 min 0 lux 4,5 C 4,1 C
04.12.2005 13:00 6,9 C 6,8 C 86 % 998 hPa 0,0 l/m 3,0 m/s (1 Bft) SW67.5 215 0,00 min 0 lux 4,7 C 3,6 C
04.12.2005 13:05 7,0 C 6,8 C 85 % 998 hPa 0,4 l/m 4,3 m/s (1 Bft) S67.5 190 0,00 min 0 lux 4,7 C 1,2 C
04.12.2005 13:10 7,0 C 6,8 C 85 % 998 hPa 0,0 l/m 2,8 m/s (1 Bft) SO45 145 0,00 min 0 lux 4,7 C 4,3 C
04.12.2005 13:15 7,0 C 6,7 C 85 % 998 hPa 0,0 l/m 2,8 m/s (1 Bft) S45 180 0,00 min 0 lux 4,7 C 4,3 C
04.12.2005 13:20 7,0 C 6,7 C 85 % 998 hPa 0,0 l/m 3,4 m/s (1 Bft) S45 170 0,00 min 0 lux 4,7 C 2,9 C
04.12.2005 13:25 7,0 C 6,7 C 85 % 998 hPa 0,0 l/m 2,6 m/s (1 Bft) S-SW67.5 210 0,00 min 0 lux 4,7 C 4,7 C
04.12.2005 13:30 7,0 C 6,7 C 85 % 998 hPa 0,0 l/m 3,1 m/s (1 Bft) S-SW67.5 200 0,00 min 0 lux 4,7 C 3,5 C
04.12.2005 13:35 7,0 C 6,8 C 85 % 998 hPa 0,0 l/m 0,2 m/s (0 Bft) SW45 230 0,00 min 0 lux 4,7 C 7,0 C
04.12.2005 13:40 7,1 C 6,8 C 84 % 998 hPa 0,0 l/m 0,2 m/s (0 Bft) SW45 235 0,00 min 0 lux 4,6 C 7,1 C
04.12.2005 13:45 7,0 C 6,8 C 84 % 998 hPa 0,0 l/m 0,0 m/s (0 Bft) W-SW22.5 250 0,00 min 0 lux 4,5 C 7,0 C
04.12.2005 13:50 7,1 C 6,8 C 84 % 998 hPa 0,0 l/m 0,0 m/s (0 Bft) SW 235 0,00 min 0 lux 4,6 C 7,1 C
04.12.2005 13:55 7,2 C 7,0 C 84 % 998 hPa 0,0 l/m 0,0 m/s (0 Bft) S-SW45 195 0,00 min 0 lux 4,7 C 7,2 C
04.12.2005 14:00 7,2 C 7,0 C 84 % 998 hPa 0,0 l/m 0,1 m/s (0 Bft) S-SO67.5 150 0,00 min 0 lux 4,7 C 7,2 C
04.12.2005 14:05 7,4 C 7,1 C 84 % 997 hPa 0,0 l/m 0,3 m/s (0 Bft) SO67.5 135 0,00 min 0 lux 4,9 C 7,4 C
04.12.2005 14:10 7,3 C 7,1 C 84 % 997 hPa 0,0 l/m 0,4 m/s (0 Bft) S67.5 170 0,00 min 0 lux 4,8 C 7,3 C
04.12.2005 14:15 7,2 C 7,1 C 84 % 997 hPa 0,0 l/m 2,7 m/s (1 Bft) SO67.5 145 0,00 min 0 lux 4,7 C 4,7 C
04.12.2005 14:20 7,1 C 7,1 C 83 % 997 hPa 0,0 l/m 3,0 m/s (1 Bft) S-SO45 150 0,00 min 0 lux 4,4 C 3,8 C
04.12.2005 14:25 7,2 C 7,1 C 83 % 997 hPa 0,0 l/m 1,1 m/s (0 Bft) S67.5 175 0,00 min 0 lux 4,5 C 7,2 C
04.12.2005 14:30 7,1 C 7,1 C 83 % 997 hPa 0,0 l/m 0,2 m/s (0 Bft) SO67.5 135 0,00 min 0 lux 4,4 C 7,1 C
04.12.2005 14:35 7,1 C 7,1 C 83 % 997 hPa 0,0 l/m 0,2 m/s (0 Bft) SW45 225 0,00 min 0 lux 4,4 C 7,1 C
04.12.2005 14:40 7,1 C 7,1 C 83 % 997 hPa 0,0 l/m 0,2 m/s (0 Bft) S45 190 0,00 min 0 lux 4,4 C 7,1 C
04.12.2005 14:45 7,0 C 7,1 C 83 % 997 hPa 0,0 l/m 1,2 m/s (1 Bft) S67.5 175 0,00 min 0 lux 4,3 C 7,0 C
04.12.2005 14:50 7,0 C 7,1 C 83 % 997 hPa 0,0 l/m 0,8 m/s (0 Bft) SO45 135 0,00 min 0 lux 4,3 C 7,0 C
04.12.2005 14:55 7,0 C 7,1 C 83 % 997 hPa 0,0 l/m 0,2 m/s (0 Bft) O 100 0,00 min 0 lux 4,3 C 7,0 C
04.12.2005 15:00 6,9 C 7,1 C 84 % 997 hPa 0,0 l/m 0,9 m/s (0 Bft) S45 175 0,00 min 0 lux 4,4 C 6,9 C
04.12.2005 15:05 6,9 C 7,1 C 85 % 997 hPa 0,0 l/m 2,4 m/s (1 Bft) S67.5 190 0,00 min 0 lux 4,6 C 5,1 C
04.12.2005 15:10 6,9 C 7,1 C 85 % 997 hPa 0,0 l/m 2,6 m/s (1 Bft) S-SW45 200 0,00 min 0 lux 4,6 C 4,5 C
04.12.2005 15:15 6,9 C 7,0 C 85 % 997 hPa 0,0 l/m 1,6 m/s (1 Bft) SW22.5 225 0,00 min 0 lux 4,6 C 6,9 C
04.12.2005 15:20 6,9 C 7,0 C 86 % 997 hPa 0,4 l/m 0,3 m/s (0 Bft) SW22.5 220 0,00 min 0 lux 4,7 C 6,9 C
04.12.2005 15:25 6,9 C 7,0 C 86 % 997 hPa 0,0 l/m 0,0 m/s (0 Bft) SW22.5 215 0,00 min 0 lux 4,7 C 6,9 C
04.12.2005 15:30 6,9 C 7,0 C 86 % 997 hPa 0,0 l/m 0,0 m/s (0 Bft) S-SW67.5 200 0,00 min 0 lux 4,7 C 6,9 C
04.12.2005 15:35 6,8 C 6,9 C 86 % 997 hPa 0,4 l/m 3,1 m/s (1 Bft) S45 185 0,00 min 0 lux 4,6 C 3,4 C
04.12.2005 15:40 6,8 C 6,9 C 87 % 997 hPa 0,0 l/m 2,5 m/s (1 Bft) S-SO22.5 150 0,00 min 0 lux 4,8 C 4,7 C
04.12.2005 15:45 6,8 C 6,9 C 87 % 997 hPa 0,0 l/m 0,4 m/s (0 Bft) S67.5 170 0,00 min 0 lux 4,8 C 6,8 C
04.12.2005 15:50 6,8 C 6,8 C 87 % 997 hPa 0,0 l/m 0,0 m/s (0 Bft) S-SW45 195 0,00 min 0 lux 4,8 C 6,8 C
04.12.2005 15:55 6,8 C 6,8 C 87 % 996 hPa 0,0 l/m 0,0 m/s (0 Bft) SO 135 0,00 min 0 lux 4,8 C 6,8 C
04.12.2005 16:00 6,7 C 6,7 C 87 % 996 hPa 0,0 l/m 0,3 m/s (0 Bft) O-SO45 115 0,00 min 0 lux 4,7 C 6,7 C
04.12.2005 16:05 6,7 C 6,7 C 88 % 996 hPa 0,0 l/m 3,6 m/s (1 Bft) SO67.5 140 0,00 min 0 lux 4,9 C 2,2 C
04.12.2005 16:10 6,7 C 6,7 C 88 % 996 hPa 0,0 l/m 2,2 m/s (1 Bft) S-SO45 160 0,00 min 0 lux 4,9 C 5,4 C
04.12.2005 16:15 6,6 C 6,7 C 88 % 996 hPa 0,0 l/m 2,1 m/s (1 Bft) SO45 135 0,00 min 0 lux 4,8 C 5,6 C
04.12.2005 16:20 6,6 C 6,7 C 88 % 996 hPa 0,0 l/m 3,2 m/s (1 Bft) SO67.5 140 0,00 min 0 lux 4,8 C 2,9 C
04.12.2005 16:25 6,5 C 6,7 C 88 % 996 hPa 0,0 l/m 2,7 m/s (1 Bft) SO22.5 145 0,00 min 0 lux 4,7 C 4,0 C
04.12.2005 16:30 6,6 C 6,7 C 88 % 996 hPa 0,0 l/m 2,7 m/s (1 Bft) SO67.5 140 0,00 min 0 lux 4,8 C 4,1 C
04.12.2005 16:35 6,5 C 6,6 C 88 % 996 hPa 0,0 l/m 0,0 m/s (0 Bft) S45 185 0,00 min 0 lux 4,7 C 6,5 C
04.12.2005 16:40 6,5 C 6,6 C 88 % 996 hPa 0,0 l/m 0,0 m/s (0 Bft) S45 185 0,00 min 0 lux 4,7 C 6,5 C
04.12.2005 16:45 6,5 C 6,6 C 88 % 996 hPa 0,0 l/m 0,2 m/s (0 Bft) S45 175 0,00 min 0 lux 4,7 C 6,5 C
04.12.2005 16:50 6,5 C 6,6 C 88 % 996 hPa 0,4 l/m 0,0 m/s (0 Bft) SO22.5 135 0,00 min 0 lux 4,7 C 6,5 C
04.12.2005 16:55 6,5 C 6,6 C 88 % 996 hPa 0,0 l/m 1,7 m/s (1 Bft) SO22.5 140 0,00 min 0 lux 4,7 C 6,5 C
04.12.2005 17:00 6,5 C 6,6 C 89 % 995 hPa 0,0 l/m 4,7 m/s (1 Bft) SO22.5 135 0,00 min 0 lux 4,8 C -0,0 C
04.12.2005 17:05 6,4 C 6,6 C 89 % 995 hPa 0,0 l/m 4,3 m/s (1 Bft) SO45 135 0,00 min 0 lux 4,7 C 0,6 C
04.12.2005 17:10 6,4 C 6,5 C 88 % 995 hPa 0,4 l/m 2,4 m/s (1 Bft) SO22.5 140 0,00 min 0 lux 4,6 C 4,5 C
04.12.2005 17:15 6,3 C 6,5 C 88 % 995 hPa 0,0 l/m 3,5 m/s (1 Bft) SO22.5 130 0,00 min 0 lux 4,5 C 1,9 C
04.12.2005 17:20 6,3 C 6,5 C 88 % 995 hPa 0,0 l/m 1,7 m/s (1 Bft) SO22.5 140 0,00 min 0 lux 4,5 C 6,3 C
04.12.2005 17:25 6,3 C 6,4 C 89 % 995 hPa 0,4 l/m 1,9 m/s (1 Bft) SO45 140 0,00 min 0 lux 4,6 C 5,9 C
04.12.2005 17:30 6,2 C 6,3 C 89 % 995 hPa 0,0 l/m 2,1 m/s (1 Bft) SO22.5 135 0,00 min 0 lux 4,5 C 5,4 C
04.12.2005 17:35 6,2 C 6,3 C 89 % 995 hPa 0,4 l/m 1,1 m/s (1 Bft) SO22.5 130 0,00 min 0 lux 4,5 C 6,2 C
04.12.2005 17:40 6,2 C 6,3 C 89 % 995 hPa 0,0 l/m 4,4 m/s (1 Bft) SO22.5 140 0,00 min 0 lux 4,5 C 0,1 C
04.12.2005 17:45 6,2 C 6,2 C 89 % 995 hPa 0,0 l/m 2,6 m/s (1 Bft) SO22.5 130 0,00 min 0 lux 4,5 C 3,7 C
04.12.2005 17:50 6,2 C 6,2 C 89 % 995 hPa 0,4 l/m 1,6 m/s (1 Bft) SO22.5 135 0,00 min 0 lux 4,5 C 6,2 C
04.12.2005 17:55 6,1 C 6,2 C 89 % 995 hPa 0,4 l/m 0,4 m/s (0 Bft) O-SO22.5 110 0,00 min 0 lux 4,4 C 6,1 C
04.12.2005 18:00 6,1 C 6,2 C 89 % 995 hPa 0,0 l/m 1,3 m/s (1 Bft) O-SO22.5 120 0,00 min 0 lux 4,4 C 6,1 C
04.12.2005 18:05 6,1 C 6,1 C 90 % 995 hPa 0,0 l/m 1,6 m/s (1 Bft) SO22.5 125 0,00 min 0 lux 4,6 C 6,1 C
04.12.2005 18:10 6,1 C 6,1 C 90 % 995 hPa 0,0 l/m 2,7 m/s (1 Bft) O-SO67.5 110 0,00 min 0 lux 4,6 C 3,6 C
04.12.2005 18:15 6,1 C 6,1 C 90 % 995 hPa 0,4 l/m 3,8 m/s (1 Bft) SO22.5 125 0,00 min 0 lux 4,6 C 1,0 C
04.12.2005 18:20 6,1 C 6,1 C 90 % 995 hPa 0,0 l/m 2,1 m/s (1 Bft) SO45 135 0,00 min 0 lux 4,6 C 5,3 C
04.12.2005 18:25 6,1 C 6,1 C 90 % 995 hPa 0,0 l/m 0,3 m/s (0 Bft) SO22.5 135 0,00 min 0 lux 4,6 C 6,1 C
04.12.2005 18:30 6,2 C 6,1 C 90 % 995 hPa 0,0 l/m 0,2 m/s (0 Bft) SO67.5 145 0,00 min 0 lux 4,7 C 6,2 C
04.12.2005 18:35 6,2 C 6,1 C 90 % 995 hPa 0,0 l/m 1,9 m/s (1 Bft) S-SO45 155 0,00 min 0 lux 4,7 C 5,7 C
04.12.2005 18:40 6,2 C 6,1 C 90 % 995 hPa 0,4 l/m 0,0 m/s (0 Bft) S-SO22.5 165 0,00 min 0 lux 4,7 C 6,2 C
04.12.2005 18:45 6,2 C 6,2 C 90 % 994 hPa 0,0 l/m 1,6 m/s (1 Bft) S-SO67.5 155 0,00 min 0 lux 4,7 C 6,2 C
04.12.2005 18:50 6,2 C 6,2 C 90 % 994 hPa 0,0 l/m 1,9 m/s (1 Bft) S-SO67.5 155 0,00 min 0 lux 4,7 C 5,7 C
04.12.2005 18:55 6,2 C 6,2 C 90 % 994 hPa 0,0 l/m 1,9 m/s (1 Bft) SO22.5 135 0,00 min 0 lux 4,7 C 5,9 C
04.12.2005 19:00 6,2 C 6,2 C 90 % 994 hPa 0,0 l/m 2,2 m/s (1 Bft) S67.5 180 0,00 min 0 lux 4,7 C 4,9 C
04.12.2005 19:05 6,3 C 6,2 C 90 % 994 hPa 0,0 l/m 1,4 m/s (1 Bft) S67.5 175 0,00 min 0 lux 4,8 C 6,3 C
04.12.2005 19:10 6,2 C 6,2 C 90 % 994 hPa 0,4 l/m 1,1 m/s (0 Bft) S45 185 0,00 min 0 lux 4,7 C 6,2 C
04.12.2005 19:15 6,2 C 6,2 C 90 % 994 hPa 0,0 l/m 4,2 m/s (1 Bft) SW67.5 215 0,00 min 0 lux 4,7 C 0,5 C
04.12.2005 19:20 6,3 C 6,2 C 90 % 994 hPa 0,4 l/m 0,5 m/s (0 Bft) S45 185 0,00 min 0 lux 4,8 C 6,3 C
04.12.2005 19:25 6,3 C 6,2 C 89 % 994 hPa 0,0 l/m 3,9 m/s (1 Bft) S-SW67.5 195 0,00 min 0 lux 4,6 C 1,1 C
04.12.2005 19:30 6,3 C 6,2 C 89 % 994 hPa 0,0 l/m 3,6 m/s (1 Bft) SW67.5 225 0,00 min 0 lux 4,6 C 1,6 C
04.12.2005 19:35 6,2 C 6,2 C 88 % 994 hPa 0,0 l/m 3,6 m/s (1 Bft) SW67.5 230 0,00 min 0 lux 4,4 C 1,6 C
04.12.2005 19:40 6,1 C 6,1 C 88 % 994 hPa 0,4 l/m 2,8 m/s (1 Bft) S-SO45 165 0,00 min 0 lux 4,3 C 3,2 C
04.12.2005 19:45 6,2 C 6,1 C 88 % 994 hPa 0,0 l/m 0,7 m/s (0 Bft) SW67.5 230 0,00 min 0 lux 4,4 C 6,2 C
04.12.2005 19:50 6,2 C 6,1 C 88 % 994 hPa 0,4 l/m 4,5 m/s (1 Bft) SW45 230 0,00 min 0 lux 4,4 C -0,1 C
04.12.2005 19:55 6,1 C 6,1 C 87 % 994 hPa 0,0 l/m 4,4 m/s (1 Bft) SW67.5 220 0,00 min 0 lux 4,1 C -0,1 C
04.12.2005 20:00 6,1 C 6,0 C 87 % 994 hPa 0,0 l/m 4,2 m/s (1 Bft) SW67.5 225 0,00 min 0 lux 4,1 C 0,4 C
04.12.2005 20:05 6,1 C 6,0 C 87 % 994 hPa 0,4 l/m 3,3 m/s (1 Bft) SW45 230 0,00 min 0 lux 4,1 C 2,0 C
04.12.2005 20:10 6,0 C 6,0 C 88 % 994 hPa 0,0 l/m 4,2 m/s (1 Bft) SW22.5 225 0,00 min 0 lux 4,2 C 0,2 C
04.12.2005 20:15 6,0 C 6,0 C 88 % 994 hPa 0,0 l/m 2,4 m/s (1 Bft) SW22.5 220 0,00 min 0 lux 4,2 C 4,3 C
04.12.2005 20:20 6,0 C 6,0 C 88 % 994 hPa 0,4 l/m 3,7 m/s (1 Bft) S-SW67.5 195 0,00 min 0 lux 4,2 C 1,2 C
04.12.2005 20:25 6,0 C 5,9 C 88 % 994 hPa 0,0 l/m 4,9 m/s (1 Bft) SW45 220 0,00 min 0 lux 4,2 C -0,9 C
04.12.2005 20:30 5,9 C 5,9 C 89 % 994 hPa 0,4 l/m 5,3 m/s (1 Bft) SW67.5 225 0,00 min 0 lux 4,2 C -1,7 C
04.12.2005 20:35 5,9 C 5,9 C 89 % 994 hPa 0,0 l/m 3,8 m/s (1 Bft) S67.5 190 0,00 min 0 lux 4,2 C 0,8 C
04.12.2005 20:40 5,9 C 5,8 C 89 % 994 hPa 0,4 l/m 5,1 m/s (1 Bft) SW22.5 225 0,00 min 0 lux 4,2 C -1,3 C
04.12.2005 20:45 5,9 C 5,8 C 89 % 994 hPa 0,0 l/m 3,1 m/s (1 Bft) SW67.5 215 0,00 min 0 lux 4,2 C 2,4 C
04.12.2005 20:50 5,9 C 5,8 C 89 % 994 hPa 0,0 l/m 4,5 m/s (1 Bft) S-SW45 195 0,00 min 0 lux 4,2 C -0,4 C
04.12.2005 20:55 5,9 C 5,8 C 89 % 994 hPa 0,0 l/m 2,4 m/s (1 Bft) S-SW67.5 205 0,00 min 0 lux 4,2 C 4,0 C
04.12.2005 21:00 5,8 C 5,7 C 89 % 994 hPa 0,4 l/m 2,8 m/s (1 Bft) S45 185 0,00 min 0 lux 4,1 C 2,9 C
04.12.2005 21:05 5,8 C 5,7 C 89 % 994 hPa 0,0 l/m 1,5 m/s (1 Bft) S-SW67.5 205 0,00 min 0 lux 4,1 C 5,8 C
04.12.2005 21:10 5,9 C 5,7 C 89 % 994 hPa 0,0 l/m 2,9 m/s (1 Bft) S-SW67.5 200 0,00 min 0 lux 4,2 C 2,7 C
04.12.2005 21:15 5,9 C 5,7 C 89 % 993 hPa 0,4 l/m 4,2 m/s (1 Bft) S-SW67.5 200 0,00 min 0 lux 4,2 C 0,2 C
04.12.2005 21:20 5,9 C 5,7 C 89 % 993 hPa 0,0 l/m 3,7 m/s (1 Bft) S67.5 190 0,00 min 0 lux 4,2 C 1,0 C
04.12.2005 21:25 5,9 C 5,7 C 89 % 993 hPa 0,0 l/m 2,8 m/s (1 Bft) S45 185 0,00 min 0 lux 4,2 C 2,9 C
04.12.2005 21:30 5,9 C 5,7 C 90 % 993 hPa 0,4 l/m 2,0 m/s (1 Bft) S45 175 0,00 min 0 lux 4,4 C 5,1 C
04.12.2005 21:35 5,9 C 5,7 C 90 % 993 hPa 0,4 l/m 2,8 m/s (1 Bft) S-SW45 195 0,00 min 0 lux 4,4 C 3,0 C
04.12.2005 21:40 5,9 C 5,8 C 90 % 994 hPa 0,0 l/m 2,2 m/s (1 Bft) SW45 230 0,00 min 0 lux 4,4 C 4,6 C
04.12.2005 21:45 6,0 C 5,8 C 89 % 993 hPa 0,4 l/m 2,6 m/s (1 Bft) SW45 220 0,00 min 0 lux 4,3 C 3,5 C
04.12.2005 21:50 6,0 C 5,8 C 89 % 993 hPa 0,0 l/m 3,2 m/s (1 Bft) S-SW67.5 205 0,00 min 0 lux 4,3 C 2,2 C
04.12.2005 21:55 6,0 C 5,8 C 89 % 993 hPa 0,0 l/m 1,1 m/s (0 Bft) SW67.5 215 0,00 min 0 lux 4,3 C 6,0 C
04.12.2005 22:00 6,0 C 5,9 C 90 % 993 hPa 0,0 l/m 3,2 m/s (1 Bft) S-SW67.5 200 0,00 min 0 lux 4,5 C 2,1 C
04.12.2005 22:05 6,0 C 5,9 C 90 % 993 hPa 0,4 l/m 1,6 m/s (1 Bft) SW45 220 0,00 min 0 lux 4,5 C 6,0 C
04.12.2005 22:10 6,0 C 5,9 C 90 % 993 hPa 0,0 l/m 1,9 m/s (1 Bft) S45 185 0,00 min 0 lux 4,5 C 5,5 C
04.12.2005 22:15 6,1 C 5,9 C 90 % 993 hPa 0,0 l/m 3,8 m/s (1 Bft) S-SW67.5 210 0,00 min 0 lux 4,6 C 1,0 C
04.12.2005 22:20 6,2 C 6,0 C 90 % 993 hPa 0,0 l/m 4,5 m/s (1 Bft) SW67.5 220 0,00 min 0 lux 4,7 C 0,0 C
04.12.2005 22:25 6,2 C 6,0 C 90 % 993 hPa 0,0 l/m 4,0 m/s (1 Bft) S-SW67.5 210 0,00 min 0 lux 4,7 C 0,8 C
04.12.2005 22:30 6,2 C 6,0 C 90 % 993 hPa 0,0 l/m 6,3 m/s (2 Bft) SW67.5 230 0,00 min 0 lux 4,7 C -2,6 C
04.12.2005 22:35 6,2 C 6,1 C 90 % 993 hPa 0,0 l/m 6,0 m/s (2 Bft) SW45 225 0,00 min 0 lux 4,7 C -2,2 C
04.12.2005 22:40 6,2 C 6,1 C 91 % 993 hPa 0,4 l/m 4,9 m/s (1 Bft) S67.5 175 0,00 min 0 lux 4,8 C -0,7 C
04.12.2005 22:45 6,2 C 6,1 C 91 % 993 hPa 0,0 l/m 6,7 m/s (2 Bft) SW45 215 0,00 min 0 lux 4,8 C -3,0 C
04.12.2005 22:50 6,3 C 6,1 C 91 % 993 hPa 0,0 l/m 3,6 m/s (1 Bft) S-SW67.5 210 0,00 min 0 lux 4,9 C 1,8 C
04.12.2005 22:55 6,3 C 6,2 C 91 % 993 hPa 0,0 l/m 3,6 m/s (1 Bft) S-SW67.5 210 0,00 min 0 lux 4,9 C 1,8 C
04.12.2005 23:00 6,3 C 6,1 C 91 % 993 hPa 0,0 l/m 6,9 m/s (2 Bft) SW67.5 225 0,00 min 0 lux 4,9 C -3,2 C
04.12.2005 23:05 6,3 C 6,1 C 91 % 993 hPa 0,0 l/m 4,2 m/s (1 Bft) S-SW67.5 200 0,00 min 0 lux 4,9 C 0,6 C
04.12.2005 23:10 6,3 C 6,2 C 90 % 993 hPa 0,0 l/m 5,7 m/s (1 Bft) SW45 215 0,00 min 0 lux 4,8 C -1,7 C
04.12.2005 23:15 6,3 C 6,2 C 90 % 993 hPa 0,4 l/m 4,2 m/s (1 Bft) SW67.5 215 0,00 min 0 lux 4,8 C 0,6 C
04.12.2005 23:20 6,3 C 6,2 C 90 % 993 hPa 0,0 l/m 5,8 m/s (2 Bft) SW45 225 0,00 min 0 lux 4,8 C -1,8 C
04.12.2005 23:25 6,2 C 6,2 C 90 % 993 hPa 0,0 l/m 5,0 m/s (1 Bft) S-SW67.5 205 0,00 min 0 lux 4,7 C -0,8 C
04.12.2005 23:30 6,3 C 6,2 C 89 % 993 hPa 0,0 l/m 7,0 m/s (2 Bft) SW67.5 230 0,00 min 0 lux 4,6 C -3,3 C
04.12.2005 23:35 6,2 C 6,2 C 89 % 993 hPa 0,0 l/m 6,0 m/s (2 Bft) SW67.5 235 0,00 min 0 lux 4,5 C -2,2 C
04.12.2005 23:40 6,2 C 6,1 C 89 % 993 hPa 0,0 l/m 4,3 m/s (1 Bft) SW67.5 235 0,00 min 0 lux 4,5 C 0,3 C
04.12.2005 23:45 6,2 C 6,1 C 89 % 993 hPa 0,0 l/m 3,7 m/s (1 Bft) W-SW45 240 0,00 min 0 lux 4,5 C 1,4 C
04.12.2005 23:50 6,1 C 6,1 C 89 % 993 hPa 0,0 l/m 3,5 m/s (1 Bft) W-SW22.5 240 0,00 min 0 lux 4,4 C 1,7 C
04.12.2005 23:55 6,1 C 6,0 C 89 % 994 hPa 0,0 l/m 2,7 m/s (1 Bft) W-SW22.5 250 0,00 min 0 lux 4,4 C 3,6 C
_ Min-Zeit 00:15 00:00 14:20 21:15 - 05:10 - - - - 00:00 07:20
Minimum _ 4,3 C 4,3 C 83 % 993 hPa - 0,0 m/s (0 Bft) - - - - 2,9 C -4,1 C
_ Max-Zeit 14:05 14:05 01:00 00:00 01:25 23:30 - - 00:00 00:00 22:50 14:05
Maximum _ 7,4 C 7,1 C 92 % 1000 hPa 0,4 l/m 7,0 m/s
SW (4 Bft)
- - 0,00 min 0,000 klux 4,9 C 7,4 C
Durchschnitt _ 5,9 C 5,9 C 89 % 997 hPa #14,0 l/m 2,8 m/s (2 Bft) SW - #0 min. 0,000 klux 4,2 C 2,7 C